• En España
  • Lista de países
  • Para 7 días
  • Temperatura del agua
  • Mapa Satelital
  • El tiempo en el mapa
  • Informadores
  • user-avatar
    Iniciar sesión

    Tiempo cada hora Kosobanovo

    Hoy, 17 Agosto, Viernes

    Tiempo Temperatura Precipitaciones Viento Presión Humedad
    00:00 +16°C° 0 mm 3 mps 744 mmHg 97%
    01:00 +14°C° 0 mm 3 mps 744 mmHg 96%
    02:00 +13°C° 0 mm 4 mps 745 mmHg 96%
    03:00 +13°C° 0 mm 4 mps 745 mmHg 96%
    04:00 +12°C° 0 mm 4 mps 745 mmHg 97%
    05:00 +12°C° 0 mm 4 mps 746 mmHg 95%
    06:00 +12°C° 0 mm 5 mps 746 mmHg 94%
    07:00 +10°C° 0 mm 5 mps 747 mmHg 93%
    08:00 +12°C° 0 mm 5 mps 747 mmHg 86%
    09:00 +14°C° 0 mm 5 mps 748 mmHg 78%
    10:00 +15°C° 0 mm 5 mps 748 mmHg 71%
    11:00 +16°C° 0 mm 5 mps 748 mmHg 65%
    12:00 +17°C° 0 mm 5 mps 749 mmHg 60%
    13:00 +19°C° 0 mm 5 mps 749 mmHg 55%
    14:00 +19°C° 0 mm 5 mps 749 mmHg 54%
    15:00 +19°C° 0 mm 4 mps 749 mmHg 54%
    16:00 +19°C° 0 mm 4 mps 749 mmHg 53%
    17:00 +18°C° 0 mm 4 mps 749 mmHg 61%
    18:00 +16°C° 0 mm 3 mps 749 mmHg 69%
    19:00 +14°C° 0 mm 3 mps 749 mmHg 76%
    20:00 +13°C° 0 mm 3 mps 749 mmHg 82%
    21:00 +12°C° 0 mm 2 mps 750 mmHg 87%
    22:00 +10°C° 0 mm 2 mps 750 mmHg 93%
    23:00 +9°C° 0 mm 2 mps 750 mmHg 94%

    Mañana, 18 Agosto, Sábado

    Tiempo Temperatura Precipitaciones Viento Presión Humedad
    00:00 +9°C° 0 mm 2 mps 750 mmHg 95%
    01:00 +9°C° 0 mm 2 mps 750 mmHg 97%
    02:00 +8°C° 0 mm 2 mps 750 mmHg 97%
    03:00 +8°C° 0 mm 2 mps 751 mmHg 97%
    04:00 +7°C° 0 mm 2 mps 751 mmHg 98%
    05:00 +8°C° 0 mm 3 mps 751 mmHg 95%
    06:00 +9°C° 0 mm 3 mps 751 mmHg 93%
    07:00 +9°C° 0 mm 3 mps 752 mmHg 91%
    08:00 +11°C° 0 mm 3 mps 752 mmHg 83%
    09:00 +13°C° 0 mm 4 mps 752 mmHg 76%
    10:00 +14°C° 0 mm 4 mps 752 mmHg 68%
    11:00 +15°C° 0 mm 4 mps 752 mmHg 66%
    12:00 +15°C° 0 mm 4 mps 752 mmHg 63%
    13:00 +17°C° 0 mm 4 mps 751 mmHg 60%
    14:00 +17°C° 0 mm 4 mps 751 mmHg 60%
    15:00 +17°C° 0 mm 4 mps 752 mmHg 59%
    16:00 +17°C° 0 mm 4 mps 752 mmHg 58%
    17:00 +16°C° 0 mm 3 mps 752 mmHg 64%
    18:00 +14°C° 0 mm 3 mps 752 mmHg 69%
    19:00 +14°C° 0 mm 2 mps 752 mmHg 74%
    20:00 +13°C° 0 mm 2 mps 752 mmHg 78%
    21:00 +10°C° 0 mm 2 mps 753 mmHg 82%
    22:00 +9°C° 0 mm 2 mps 753 mmHg 85%
    23:00 +8°C° 0 mm 2 mps 753 mmHg 88%

    Pasado mañana, 19 Agosto, Domingo

    Tiempo Temperatura Precipitaciones Viento Presión Humedad
    00:00 +8°C° 0 mm 2 mps 753 mmHg 91%
    01:00 +7°C° 0 mm 2 mps 753 mmHg 93%
    02:00 +7°C° 0 mm 2 mps 753 mmHg 94%
    03:00 +6°C° 0 mm 2 mps 753 mmHg 95%
    04:00 +7°C° 0 mm 1 mps 754 mmHg 96%
    05:00 +8°C° 0 mm 1 mps 754 mmHg 93%
    06:00 +8°C° 0 mm 2 mps 754 mmHg 90%
    07:00 +9°C° 0 mm 2 mps 754 mmHg 87%
    08:00 +12°C° 0 mm 2 mps 754 mmHg 80%
    09:00 +14°C° 0 mm 2 mps 754 mmHg 73%
    10:00 +16°C° 0 mm 2 mps 754 mmHg 66%
    11:00 +17°C° 0 mm 2 mps 753 mmHg 62%
    12:00 +18°C° 0 mm 2 mps 753 mmHg 57%
    13:00 +18°C° 0 mm 2 mps 753 mmHg 53%
    14:00 +19°C° 0 mm 2 mps 752 mmHg 52%
    15:00 +19°C° 0 mm 2 mps 752 mmHg 52%
    16:00 +19°C° 0 mm 2 mps 752 mmHg 51%
    17:00 +19°C° 0 mm 1 mps 752 mmHg 58%
    18:00 +16°C° 0 mm 1 mps 752 mmHg 64%
    19:00 +14°C° 0 mm 0 mps 752 mmHg 71%
    20:00 +14°C° 0 mm 1 mps 752 mmHg 74%
    21:00 +12°C° 0 mm 1 mps 752 mmHg 78%
    22:00 +11°C° 0 mm 1 mps 752 mmHg 82%
    23:00 +11°C° 0 mm 1 mps 752 mmHg 83%

    20 Agosto, Lunes

    Tiempo Temperatura Precipitaciones Viento Presión Humedad
    00:00 +10°C° 0 mm 1 mps 752 mmHg 85%
    01:00 +10°C° 0 mm 1 mps 752 mmHg 86%
    02:00 +10°C° 0 mm 1 mps 752 mmHg 87%
    03:00 +10°C° 0 mm 1 mps 752 mmHg 88%
    04:00 +9°C° 0 mm 1 mps 752 mmHg 89%
    05:00 +10°C° 0 mm 1 mps 752 mmHg 86%
    06:00 +11°C° 0 mm 1 mps 752 mmHg 83%
    07:00 +13°C° 0 mm 1 mps 752 mmHg 79%
    08:00 +14°C° 0 mm 1 mps 751 mmHg 74%
    09:00 +16°C° 0 mm 1 mps 751 mmHg 68%
    10:00 +18°C° 0 mm 2 mps 751 mmHg 63%
    11:00 +19°C° 0 mm 2 mps 751 mmHg 60%
    12:00 +20°C° 0 mm 2 mps 750 mmHg 58%
    13:00 +21°C° 0 mm 2 mps 750 mmHg 55%
    14:00 +21°C° 0 mm 2 mps 750 mmHg 56%
    15:00 +23°C° 0 mm 2 mps 749 mmHg 57%
    16:00 +22°C° 0 mm 3 mps 749 mmHg 58%
    17:00 +20°C° 0 mm 2 mps 749 mmHg 65%
    18:00 +19°C° 0 mm 2 mps 749 mmHg 72%
    19:00 +18°C° 0 mm 2 mps 749 mmHg 79%
    20:00 +17°C° 0 mm 2 mps 749 mmHg 83%
    21:00 +15°C° 0 mm 2 mps 749 mmHg 87%
    22:00 +14°C° 0 mm 2 mps 748 mmHg 91%
    23:00 +14°C° 0 mm 2 mps 748 mmHg 91%

    21 Agosto, Martes

    Tiempo Temperatura Precipitaciones Viento Presión Humedad
    00:00 +14°C° 0 mm 2 mps 748 mmHg 91%
    01:00 +13°C° 0 mm 2 mps 748 mmHg 91%
    02:00 +13°C° 0,2 mm 2 mps 747 mmHg 93%
    03:00 +13°C° 0,2 mm 2 mps 747 mmHg 94%
    04:00 +13°C° 0,2 mm 2 mps 747 mmHg 95%
    05:00 +13°C° 0,7 mm 3 mps 747 mmHg 95%
    06:00 +13°C° 0,7 mm 3 mps 747 mmHg 95%
    07:00 +13°C° 0,7 mm 4 mps 746 mmHg 96%
    08:00 +14°C° 1 mm 4 mps 746 mmHg 96%
    09:00 +14°C° 1 mm 4 mps 746 mmHg 96%
    10:00 +14°C° 1 mm 4 mps 746 mmHg 96%
    11:00 +15°C° 0,2 mm 4 mps 746 mmHg 94%
    12:00 +17°C° 0,2 mm 4 mps 746 mmHg 92%
    13:00 +18°C° 0,2 mm 4 mps 746 mmHg 90%
    14:00 +18°C° 0,5 mm 4 mps 746 mmHg 89%
    15:00 +18°C° 0,5 mm 3 mps 746 mmHg 87%
    16:00 +18°C° 0,5 mm 3 mps 746 mmHg 86%
    17:00 +18°C° 0,1 mm 3 mps 746 mmHg 88%
    18:00 +18°C° 0,1 mm 2 mps 746 mmHg 89%
    19:00 +17°C° 0,1 mm 2 mps 746 mmHg 91%
    20:00 +16°C° 0 mm 2 mps 746 mmHg 92%
    21:00 +15°C° 0 mm 2 mps 746 mmHg 94%
    22:00 +14°C° 0 mm 2 mps 746 mmHg 95%
    23:00 +14°C° 0 mm 2 mps 746 mmHg 96%

    22 Agosto, Miércoles

    Tiempo Temperatura Precipitaciones Viento Presión Humedad
    00:00 +13°C° 0 mm 2 mps 746 mmHg 96%
    01:00 +13°C° 0 mm 2 mps 746 mmHg 96%
    02:00 +12°C° 0 mm 1 mps 747 mmHg 96%
    03:00 +12°C° 0 mm 1 mps 747 mmHg 96%
    04:00 +12°C° 0 mm 1 mps 747 mmHg 96%
    05:00 +12°C° 0 mm 1 mps 747 mmHg 95%
    06:00 +13°C° 0 mm 1 mps 747 mmHg 93%
    07:00 +14°C° 0 mm 1 mps 748 mmHg 92%
    08:00 +15°C° 0 mm 1 mps 747 mmHg 85%
    09:00 +18°C° 0 mm 1 mps 747 mmHg 77%
    10:00 +20°C° 0 mm 1 mps 747 mmHg 70%
    11:00 +21°C° 0 mm 1 mps 747 mmHg 63%
    12:00 +22°C° 0 mm 1 mps 747 mmHg 57%
    13:00 +23°C° 0 mm 1 mps 746 mmHg 50%
    14:00 +23°C° 0 mm 1 mps 746 mmHg 50%
    15:00 +22°C° 0 mm 1 mps 746 mmHg 50%
    16:00 +20°C° 0 mm 0 mps 746 mmHg 51%
    17:00 +19°C° 0 mm 0 mps 745 mmHg 56%
    18:00 +17°C° 0 mm 0 mps 745 mmHg 62%
    19:00 +16°C° 0 mm 0 mps 745 mmHg 68%
    20:00 +16°C° 0 mm 1 mps 745 mmHg 69%
    21:00 +15°C° 0 mm 1 mps 745 mmHg 71%
    22:00 +15°C° 0 mm 1 mps 745 mmHg 72%
    23:00 +15°C° 0 mm 1 mps 744 mmHg 74%
    Mostrar más